Cook, MN

9:17 AM CDT on August 26, 2016 (GMT -0500)
Cook Municipal

Weather History for KCQM - October, 2013

Change the Weather History Date:

Tuesday, October 1, 2013

  Actual Average Record
Temperature  
Mean Temperature 58 °F -  
Max Temperature 66 °F 55 °F 80 °F (2005)
Min Temperature 51 °F 34 °F 24 °F (2011)
Degree Days  
Heating Degree Days 6    
Growing Degree Days 8 (Base 50)    
Moisture  
Dew Point 42 °F    
Average Humidity 54    
Maximum Humidity 88    
Minimum Humidity 30    
Precipitation  
Precipitation 0.00 in - - ()
Sea Level Pressure  
Sea Level Pressure 29.68 in    
Wind  
Wind Speed 8 mph (WSW)    
Max Wind Speed 23 mph    
Max Gust Speed 34 mph    
Visibility 10 miles    
Events Rain    
Averages and records for this station are not official NWS values.
T = Trace of Precipitation, MM = Missing Value Source: NWS Daily Summary

Daily Weather History Graph

Daily Weather History Graph

Search for Another Location

Airport or City:

Trip Planner

Search our weather history database for the weather conditions in past years. The results will help you decide how hot, cold, wet, or windy it might be!

Date:

Astronomy

Oct. 01, 2013 Rise Set
Actual Time 7:10 AM CDT 6:49 PM CDT
Civil Twilight 6:39 AM CDT 7:20 PM CDT
Nautical Twilight 6:03 AM CDT 7:56 PM CDT
Astronomical Twilight 5:26 AM CDT 8:32 PM CDT
Moon 3:32 AM CDT (10/1) 5:03 PM CDT (10/1)
Length of Visible Light 12h 40m
Length of Day
11h 39m
Waning Crescent, 12% of the Moon is Illuminated
Oct 1
Waning Crescent
Oct 4
New
Oct 11
First Quarter
Oct 18
Full
Oct 26
Last Quarter

Hourly Weather History & Observations

Time (CDT) Temp. Dew Point Humidity Pressure Visibility Wind Dir Wind Speed Gust Speed Precip Events Conditions
12:16 AM 57.2 °F 51.8 °F 82% 29.56 in 10.0 mi SE 3.5 mph - N/A   Clear
12:37 AM 57.2 °F 51.8 °F 82% 29.55 in 10.0 mi SE 6.9 mph - N/A   Clear
12:56 AM 59.0 °F 51.8 °F 77% 29.55 in 10.0 mi South 4.6 mph - N/A   Clear
1:16 AM 60.8 °F 51.8 °F 72% 29.54 in 10.0 mi South 6.9 mph - N/A   Clear
1:36 AM 60.8 °F 51.8 °F 72% 29.53 in 10.0 mi SSE 3.5 mph - N/A   Clear
1:57 AM 60.8 °F 51.8 °F 72% 29.53 in 10.0 mi SSE 4.6 mph - N/A   Clear
2:16 AM 60.8 °F 51.8 °F 72% 29.53 in 10.0 mi South 4.6 mph - N/A   Clear
2:36 AM 60.8 °F 51.8 °F 72% 29.53 in 10.0 mi South 6.9 mph - N/A   Clear
2:57 AM 60.8 °F 51.8 °F 72% 29.51 in 10.0 mi SSE 4.6 mph - N/A   Clear
3:16 AM 60.8 °F 51.8 °F 72% 29.52 in 10.0 mi South 5.8 mph - N/A   Scattered Clouds
3:36 AM 60.8 °F 51.8 °F 72% 29.51 in 10.0 mi South 3.5 mph - N/A   Scattered Clouds
3:57 AM 60.8 °F 51.8 °F 72% 29.51 in 10.0 mi South 3.5 mph - N/A   Clear
4:16 AM 60.8 °F 51.8 °F 72% 29.55 in 10.0 mi SW 9.2 mph - N/A   Clear
4:37 AM 60.8 °F 51.8 °F 72% 29.54 in 10.0 mi SSW 6.9 mph - N/A   Clear
4:56 AM 60.8 °F 51.8 °F 72% 29.56 in 10.0 mi SW 8.1 mph - N/A Rain Light Rain
5:17 AM 60.8 °F 53.6 °F 77% 29.56 in 10.0 mi SSW 3.5 mph - N/A Rain Light Rain
5:36 AM 59.0 °F 53.6 °F 82% 29.55 in 10.0 mi SSW 3.5 mph - N/A   Scattered Clouds
5:56 AM 57.2 °F 53.6 °F 88% 29.56 in 10.0 mi WSW 4.6 mph - N/A   Clear
6:17 AM 57.2 °F 51.8 °F 82% 29.56 in 10.0 mi West 5.8 mph - N/A   Scattered Clouds
6:36 AM 57.2 °F 53.6 °F 88% 29.57 in 10.0 mi SW 4.6 mph - N/A   Scattered Clouds
6:56 AM 57.2 °F 51.8 °F 82% 29.58 in 10.0 mi West 8.1 mph - N/A   Scattered Clouds
7:17 AM 57.2 °F 51.8 °F 82% 29.59 in 10.0 mi West 8.1 mph - N/A   Scattered Clouds
7:36 AM 57.2 °F 51.8 °F 82% 29.60 in 10.0 mi West 5.8 mph - N/A   Scattered Clouds
7:56 AM 57.2 °F 50.0 °F 77% 29.61 in 10.0 mi West 6.9 mph - N/A   Clear
8:17 AM 57.2 °F 48.2 °F 72% 29.61 in 10.0 mi West 8.1 mph - N/A   Clear
8:36 AM 57.2 °F 48.2 °F 72% 29.63 in 10.0 mi WSW 9.2 mph - N/A   Clear
8:56 AM 59.0 °F 48.2 °F 67% 29.64 in 10.0 mi WSW 6.9 mph - N/A   Clear
9:16 AM 60.8 °F 48.2 °F 63% 29.65 in 10.0 mi West 10.4 mph - N/A   Clear
9:37 AM 60.8 °F 48.2 °F 63% 29.65 in 10.0 mi WSW 11.5 mph - N/A   Clear
9:56 AM 60.8 °F 46.4 °F 59% 29.65 in 10.0 mi WSW 11.5 mph - N/A   Clear
10:16 AM 62.6 °F 44.6 °F 52% 29.66 in 10.0 mi WSW 16.1 mph 19.6 mph N/A   Clear
10:37 AM 64.4 °F 42.8 °F 45% 29.67 in 10.0 mi WSW 16.1 mph 21.9 mph N/A   Clear
10:56 AM 64.4 °F 42.8 °F 45% 29.67 in 10.0 mi WSW 9.2 mph 20.7 mph N/A   Clear
11:16 AM 64.4 °F 39.2 °F 40% 29.68 in 10.0 mi West 16.1 mph 26.5 mph N/A   Clear
11:36 AM 64.4 °F 37.4 °F 37% 29.69 in 10.0 mi West 20.7 mph 26.5 mph N/A   Clear
11:56 AM 66.2 °F 35.6 °F 32% 29.69 in 10.0 mi West 20.7 mph 26.5 mph N/A   Clear
12:17 PM 66.2 °F 35.6 °F 32% 29.69 in 10.0 mi West 19.6 mph 34.5 mph N/A   Clear
12:36 PM 66.2 °F 35.6 °F 32% 29.70 in 10.0 mi WSW 19.6 mph 29.9 mph N/A   Clear
12:56 PM 66.2 °F 35.6 °F 32% 29.70 in 10.0 mi WSW 19.6 mph 26.5 mph N/A   Clear
1:17 PM 66.2 °F 35.6 °F 32% 29.71 in 10.0 mi WSW 18.4 mph 27.6 mph N/A   Clear
1:36 PM 66.2 °F 35.6 °F 32% 29.71 in 10.0 mi West 10.4 mph 23.0 mph N/A   Clear
1:56 PM 66.2 °F 35.6 °F 32% 29.71 in 10.0 mi West 16.1 mph 25.3 mph N/A   Clear
2:17 PM 66.2 °F 35.6 °F 32% 29.71 in 10.0 mi West 13.8 mph 26.5 mph N/A   Clear
2:36 PM 66.2 °F 35.6 °F 32% 29.72 in 10.0 mi West 17.3 mph 27.6 mph N/A   Clear
2:56 PM 66.2 °F 33.8 °F 30% 29.72 in 10.0 mi West 18.4 mph 26.5 mph N/A   Clear
3:17 PM 66.2 °F 33.8 °F 30% 29.73 in 10.0 mi West 23.0 mph 32.2 mph N/A   Clear
3:36 PM 66.2 °F 33.8 °F 30% 29.73 in 10.0 mi West 20.7 mph 29.9 mph N/A   Clear
3:56 PM 66.2 °F 35.6 °F 32% 29.73 in 10.0 mi West 19.6 mph 26.5 mph N/A   Clear
4:16 PM 66.2 °F 33.8 °F 30% 29.73 in 10.0 mi West 18.4 mph 29.9 mph N/A   Clear
4:36 PM 66.2 °F 33.8 °F 30% 29.74 in 10.0 mi West 20.7 mph 31.1 mph N/A   Clear
4:57 PM 66.2 °F 33.8 °F 30% 29.74 in 10.0 mi West 17.3 mph 32.2 mph N/A   Clear
5:16 PM 66.2 °F 33.8 °F 30% 29.75 in 10.0 mi WSW 23.0 mph 29.9 mph N/A   Clear
5:36 PM 64.4 °F 33.8 °F 32% 29.75 in 10.0 mi West 13.8 mph 26.5 mph N/A   Clear
5:57 PM 64.4 °F 33.8 °F 32% 29.76 in 10.0 mi West 15.0 mph 29.9 mph N/A   Clear
6:16 PM 64.4 °F 33.8 °F 32% 29.77 in 10.0 mi WSW 16.1 mph 23.0 mph N/A   Clear
6:36 PM 62.6 °F 33.8 °F 34% 29.78 in 10.0 mi West 11.5 mph 19.6 mph N/A   Clear
6:57 PM 62.6 °F 32.0 °F 32% 29.78 in 10.0 mi WSW 11.5 mph 21.9 mph N/A   Clear
7:16 PM 60.8 °F 32.0 °F 34% 29.79 in 10.0 mi WSW 9.2 mph - N/A   Clear
7:36 PM 60.8 °F 33.8 °F 36% 29.80 in 10.0 mi WSW 8.1 mph - N/A   Clear
7:57 PM 57.2 °F 33.8 °F 41% 29.81 in 10.0 mi WSW 4.6 mph - N/A   Clear
8:16 PM 57.2 °F 33.8 °F 41% 29.82 in 10.0 mi WSW 4.6 mph - N/A   Clear
8:36 PM 55.4 °F 33.8 °F 44% 29.82 in 10.0 mi WSW 3.5 mph - N/A   Clear
8:57 PM 53.6 °F 33.8 °F 47% 29.83 in 10.0 mi Calm Calm - N/A   Clear
9:17 PM 51.8 °F 35.6 °F 54% 29.83 in 10.0 mi WSW 3.5 mph - N/A   Clear
9:36 PM 53.6 °F 35.6 °F 51% 29.84 in 10.0 mi WSW 3.5 mph - N/A   Clear
9:56 PM 51.8 °F 35.6 °F 54% 29.85 in 10.0 mi WSW 4.6 mph - N/A   Clear
10:16 PM 53.6 °F 35.6 °F 51% 29.85 in 10.0 mi WSW 8.1 mph - N/A   Clear
10:36 PM 53.6 °F 35.6 °F 51% 29.86 in 10.0 mi WSW 4.6 mph - N/A   Clear
10:56 PM 53.6 °F 35.6 °F 51% 29.87 in 10.0 mi WSW 6.9 mph - N/A   Clear
11:16 PM 53.6 °F 35.6 °F 51% 29.87 in 10.0 mi WSW 6.9 mph - N/A   Clear
11:36 PM 53.6 °F 35.6 °F 51% 29.88 in 10.0 mi WSW 6.9 mph - N/A   Clear
11:56 PM 53.6 °F 35.6 °F 51% 29.88 in 10.0 mi WSW 6.9 mph - N/A   Clear